Change the Weather History Date:

Saturday, June 14, 2014

  Actual Average Record
Temperature  
Mean Temperature 64 °F -  
Max Temperature 77 °F 73 °F 96 °F (1987)
Min Temperature 50 °F 55 °F 45 °F (1989)
Degree Days  
Heating Degree Days 2    
Growing Degree Days 14 (Base 50)    
Moisture  
Dew Point 41 °F    
Average Humidity 46    
Maximum Humidity 85    
Minimum Humidity 23    
Precipitation  
Precipitation 0.00 in - - ()
Sea Level Pressure  
Sea Level Pressure 30.03 in    
Wind  
Wind Speed 5 mph (SE)    
Max Wind Speed 18 mph    
Max Gust Speed 25 mph    
Visibility 10 miles    
Events      
Averages and records for this station are not official NWS values.
T = Trace of Precipitation, MM = Missing Value Source: NWS Daily Summary

Daily Weather History Graph

Daily Weather History Graph

Search for Another Location

Airport or City:

Trip Planner

Search our weather history database for the weather conditions in past years. The results will help you decide how hot, cold, wet, or windy it might be!

Date:

Astronomy

Jun. 14, 2014 Rise Set
Actual Time 5:13 AM CDT 8:36 PM CDT
Civil Twilight 4:37 AM CDT 9:12 PM CDT
Nautical Twilight 3:51 AM CDT 9:59 PM CDT
Astronomical Twilight 2:53 AM CDT 10:57 PM CDT
Moon 9:56 PM CDT (6/14) 7:00 AM CDT (6/14)
Length of Visible Light 16h 34m
Length of Day
15h 23m
Waning Gibbous, 97% of the Moon is Illuminated
Jun 14
Waning Gibbous
Jun 19
Last Quarter
Jun 27
New
Jul 5
First Quarter
Jul 12
Full

Hourly Weather History & Observations

Time (CDT) Temp. Dew Point Humidity Pressure Visibility Wind Dir Wind Speed Gust Speed Precip Events Conditions
12:15 AM 53.8 °F 39.0 °F 57% 30.03 in 10.0 mi Calm Calm - N/A   Clear
12:35 AM 53.8 °F 38.7 °F 57% 30.04 in 10.0 mi Calm Calm - N/A   Clear
12:55 AM 52.7 °F 41.4 °F 65% 30.04 in 10.0 mi SE 3.5 mph - N/A   Clear
1:15 AM 52.9 °F 41.2 °F 64% 30.04 in 10.0 mi Calm Calm - N/A   Clear
1:35 AM 52.0 °F 41.2 °F 67% 30.05 in 10.0 mi Calm Calm - N/A   Clear
1:55 AM 52.2 °F 40.6 °F 65% 30.05 in 10.0 mi Calm Calm - N/A   Clear
2:15 AM 52.2 °F 40.5 °F 64% 30.06 in 10.0 mi ESE 3.5 mph - N/A   Clear
2:35 AM 51.6 °F 41.5 °F 68% 30.06 in 10.0 mi ESE 4.6 mph - N/A   Clear
2:55 AM 51.3 °F 43.9 °F 76% 30.07 in 10.0 mi Calm Calm - N/A   Clear
3:15 AM 50.9 °F 45.1 °F 81% 30.07 in 10.0 mi ESE 3.5 mph - N/A   Clear
3:35 AM 51.3 °F 46.8 °F 85% 30.07 in 10.0 mi Calm Calm - N/A   Clear
3:55 AM 51.8 °F 46.6 °F 82% 30.07 in 10.0 mi Calm Calm - N/A   Clear
4:15 AM 51.3 °F 46.6 °F 84% 30.07 in 10.0 mi SE 3.5 mph - N/A   Clear
4:35 AM 52.0 °F 45.0 °F 77% 30.07 in 10.0 mi Calm Calm - N/A   Clear
4:55 AM 51.8 °F 45.5 °F 79% 30.07 in 10.0 mi Calm Calm - N/A   Clear
5:15 AM 51.4 °F 45.5 °F 80% 30.07 in 10.0 mi Calm Calm - N/A   Clear
5:55 AM 52.9 °F 48.6 °F 85% 30.07 in 10.0 mi ESE 5.8 mph - N/A   Scattered Clouds
6:15 AM 53.6 °F 48.6 °F 83% 30.08 in 10.0 mi Calm Calm - N/A   Clear
6:35 AM 53.4 °F 45.5 °F 75% 30.09 in 10.0 mi Calm Calm - N/A   Clear
6:55 AM 55.2 °F 42.8 °F 63% 30.09 in 10.0 mi Calm Calm - N/A   Clear
7:15 AM 55.8 °F 43.5 °F 63% 30.09 in 10.0 mi East 3.5 mph - N/A   Clear
7:35 AM 56.3 °F 44.2 °F 64% 30.09 in 10.0 mi East 5.8 mph - N/A   Clear
7:55 AM 58.3 °F 44.6 °F 60% 30.10 in 10.0 mi East 4.6 mph - N/A   Clear
8:15 AM 59.9 °F 45.3 °F 59% 30.10 in 10.0 mi East 5.8 mph - N/A   Clear
8:35 AM 61.7 °F 45.7 °F 56% 30.10 in 10.0 mi East 6.9 mph - N/A   Clear
8:55 AM 63.0 °F 43.2 °F 48% 30.10 in 10.0 mi ESE 6.9 mph - N/A   Clear
9:15 AM 62.6 °F 40.8 °F 45% 30.10 in 10.0 mi ESE 5.8 mph - N/A   Clear
9:35 AM 66.2 °F 41.2 °F 40% 30.11 in 10.0 mi ESE 6.9 mph - N/A   Clear
9:55 AM 67.6 °F 40.8 °F 38% 30.10 in 10.0 mi ESE 5.8 mph - N/A   Clear
10:15 AM 69.3 °F 39.6 °F 34% 30.09 in 10.0 mi ESE 9.2 mph - N/A   Clear
10:35 AM 70.7 °F 37.9 °F 30% 30.09 in 10.0 mi ESE 8.1 mph - N/A   Clear
10:55 AM 71.6 °F 37.6 °F 29% 30.09 in 10.0 mi SE 8.1 mph - N/A   Clear
11:15 AM 72.0 °F 37.2 °F 28% 30.09 in 10.0 mi South 9.2 mph - N/A   Clear
11:35 AM 72.3 °F 41.5 °F 33% 30.08 in 10.0 mi SSE 11.5 mph 17.3 mph N/A   Clear
11:55 AM 72.7 °F 41.2 °F 32% 30.07 in 10.0 mi SSE 9.2 mph - N/A   Clear
12:15 PM 73.2 °F 41.7 °F 32% 30.06 in 10.0 mi SSE 6.9 mph - N/A   Clear
12:35 PM 73.8 °F 37.2 °F 27% 30.06 in 10.0 mi SSE 12.7 mph - N/A   Clear
12:55 PM 74.1 °F 40.6 °F 30% 30.04 in 10.0 mi ESE 6.9 mph - N/A   Clear
1:15 PM 74.8 °F 37.6 °F 26% 30.03 in 10.0 mi SSE 8.1 mph 19.6 mph N/A   Clear
1:35 PM 75.6 °F 37.9 °F 26% 30.03 in 10.0 mi SSE 12.7 mph - N/A   Clear
1:55 PM 75.4 °F 37.2 °F 25% 30.02 in 10.0 mi SE 15.0 mph 18.4 mph N/A   Clear
2:15 PM 75.7 °F 36.0 °F 24% 30.02 in 10.0 mi SSE 10.4 mph 21.9 mph N/A   Clear
2:35 PM 76.5 °F 36.1 °F 23% 30.02 in 10.0 mi SSE 16.1 mph 24.2 mph N/A   Clear
2:55 PM 76.3 °F 35.8 °F 23% 30.02 in 10.0 mi SE 11.5 mph - N/A   Clear
3:15 PM 76.5 °F 37.2 °F 24% 30.02 in 10.0 mi SE 12.7 mph 18.4 mph N/A   Clear
3:35 PM 76.6 °F 35.6 °F 23% 30.02 in 10.0 mi SSE 15.0 mph - N/A   Clear
3:55 PM 77.0 °F 36.9 °F 23% 30.01 in 10.0 mi SE 13.8 mph 20.7 mph N/A   Clear
4:15 PM 76.6 °F 36.9 °F 24% 30.00 in 10.0 mi SSE 16.1 mph 21.9 mph N/A   Clear
4:35 PM 76.5 °F 41.0 °F 28% 29.99 in 10.0 mi ESE 15.0 mph 18.4 mph N/A   Clear
4:55 PM 74.5 °F 44.4 °F 34% 29.98 in 10.0 mi ESE 17.3 mph 20.7 mph N/A   Clear
5:15 PM 73.9 °F 44.4 °F 35% 29.96 in 10.0 mi ESE 18.4 mph 23.0 mph N/A   Clear
5:35 PM 73.6 °F 44.6 °F 35% 29.96 in 10.0 mi ESE 17.3 mph 25.3 mph N/A   Clear
5:55 PM 72.9 °F 41.7 °F 33% 29.95 in 10.0 mi SE 16.1 mph - N/A   Clear
6:15 PM 72.0 °F 39.9 °F 31% 29.95 in 10.0 mi SE 13.8 mph 25.3 mph N/A   Clear
6:35 PM 71.1 °F 39.6 °F 32% 29.94 in 10.0 mi SE 17.3 mph 21.9 mph N/A   Clear
6:55 PM 70.2 °F 37.4 °F 30% 29.96 in 10.0 mi ESE 10.4 mph - N/A   Clear
7:15 PM 69.8 °F 36.3 °F 29% 29.97 in 10.0 mi ESE 13.8 mph 20.7 mph N/A   Clear
7:35 PM 69.3 °F 36.0 °F 29% 29.98 in 10.0 mi ESE 12.7 mph 18.4 mph N/A   Clear
7:55 PM 68.7 °F 36.3 °F 30% 29.98 in 10.0 mi ESE 9.2 mph - N/A   Clear
8:15 PM 67.5 °F 37.2 °F 33% 29.98 in 10.0 mi East 8.1 mph - N/A   Clear
8:35 PM 66.0 °F 37.6 °F 35% 29.97 in 10.0 mi East 10.4 mph - N/A   Clear
8:55 PM 65.1 °F 37.4 °F 36% 29.97 in 10.0 mi ESE 10.4 mph - N/A   Clear
9:15 PM 64.8 °F 37.8 °F 37% 29.99 in 10.0 mi ESE 9.2 mph - N/A   Clear
9:35 PM 64.4 °F 37.8 °F 37% 30.01 in 10.0 mi ESE 6.9 mph - N/A   Clear
9:55 PM 63.7 °F 38.3 °F 39% 30.01 in 10.0 mi ESE 9.2 mph - N/A   Clear
10:15 PM 62.6 °F 38.5 °F 41% 30.01 in 10.0 mi ESE 9.2 mph - N/A   Clear
10:35 PM 61.9 °F 38.8 °F 43% 29.98 in 10.0 mi ESE 10.4 mph - N/A   Clear
10:55 PM 62.1 °F 38.3 °F 41% 29.98 in 10.0 mi ESE 11.5 mph - N/A   Clear
11:15 PM 62.2 °F 37.8 °F 40% 29.96 in 10.0 mi SE 15.0 mph - N/A   Clear
11:35 PM 61.7 °F 38.3 °F 42% 29.95 in 10.0 mi SE 16.1 mph 20.7 mph N/A   Clear
11:55 PM 61.3 °F 38.5 °F 43% 29.94 in 10.0 mi SE 15.0 mph 20.7 mph N/A   Clear